Weather History for Jonesville, VA

Change the Weather History Date:

Saturday, September 29, 2012

  Actual Average (KLOZ) Record (KLOZ)
Temperature  
Mean Temperature 61 °F 63 °F  
Max Temperature 71 °F 75 °F 88 °F (1986)
Min Temperature 51 °F 51 °F 37 °F (1962)
Degree Days  
Heating Degree Days 4 4  
Month to date heating degree days 40  
Since 1 July heating degree days 41  
Cooling Degree Days 0 2  
Month to date cooling degree days 140  
Growing Degree Days 11 (Base 50)    
Moisture  
Dew Point 60 °F    
Average Humidity 93    
Maximum Humidity 100    
Minimum Humidity 60    
Precipitation  
Precipitation 0.12 in 0.12 in 1.28 in (1955)
Month to date precipitation 3.26  
Sea Level Pressure  
Sea Level Pressure 30.03 in    
Wind  
Wind Speed 1 mph (NNW)    
Max Wind Speed 6 mph    
Max Gust Speed -    
Visibility 5 miles    
Events Fog , Rain , Thunderstorm    
T = Trace of Precipitation, MM = Missing Value Source: NWS Daily Summary

Daily Weather History Graph

Daily Weather History Graph

Search for Another Location

Airport:

Trip Planner

Search our weather history database for the weather conditions in past years. The results will help you decide how hot, cold, wet, or windy it might be!

Date:

Astronomy

Sep. 29, 2012 Rise Set
Actual Time 7:26 AM EDT 7:18 PM EDT
Civil Twilight 7:01 AM EDT 7:44 PM EDT
Nautical Twilight 6:31 AM EDT 8:14 PM EDT
Astronomical Twilight 6:00 AM EDT 8:44 PM EDT
Moon 6:51 PM EDT (9/29) 6:56 AM EDT (9/29)
Length of Visible Light 12h 43m
Length of Day
11h 51m
Full, 100% of the Moon is Illuminated
Sep 29
Full
Sep 29
Full
Oct 8
Last Quarter
Oct 15
New
Oct 21
First Quarter

Hourly Weather History & Observations

Time (EDT) Temp. Dew Point Humidity Pressure Visibility Wind Dir Wind Speed Gust Speed Precip Events Conditions
12:15 AM 62.6 °F 62.6 °F 100% 30.09 in 3.0 mi Calm Calm - N/A   Mist
12:35 AM 62.6 °F 62.6 °F 100% 30.09 in 2.5 mi Calm Calm - N/A   Mist
12:55 AM 62.6 °F 62.6 °F 100% 30.09 in 4.0 mi Calm Calm - N/A   Mist
1:15 AM 60.8 °F 60.8 °F 100% 30.08 in 0.5 mi Calm Calm - N/A Fog Fog
1:35 AM 60.8 °F 60.8 °F 100% 30.08 in 0.2 mi Calm Calm - N/A Fog Fog
1:55 AM 60.8 °F 60.8 °F 100% 30.08 in 0.2 mi Calm Calm - N/A Fog Fog
2:15 AM 60.8 °F 60.8 °F 100% 30.09 in 0.2 mi Calm Calm - N/A Fog Fog
2:35 AM 59.0 °F 59.0 °F 100% 30.08 in 0.2 mi Calm Calm - N/A Fog Fog
2:55 AM 59.0 °F 59.0 °F 100% 30.08 in 1.0 mi Calm Calm - N/A   Mist
3:15 AM 59.0 °F 59.0 °F 100% 30.07 in 0.5 mi Calm Calm - N/A Fog Fog
3:35 AM 59.0 °F 59.0 °F 100% 30.06 in 0.2 mi Calm Calm - N/A Fog Fog
3:55 AM 59.0 °F 59.0 °F 100% 30.06 in 0.2 mi Calm Calm - N/A Fog Fog
4:15 AM 59.0 °F 59.0 °F 100% 30.05 in 0.2 mi Calm Calm - N/A Fog Fog
4:35 AM 60.8 °F 60.8 °F 100% 30.05 in 0.5 mi Calm Calm - N/A Fog Fog
4:55 AM 60.8 °F 60.8 °F 100% 30.05 in 1.8 mi Calm Calm - N/A   Mist
5:15 AM 60.8 °F 60.8 °F 100% 30.05 in 3.0 mi Calm Calm - N/A   Mist
5:35 AM 60.8 °F 60.8 °F 100% 30.05 in 1.8 mi Calm Calm - N/A   Mist
5:55 AM 60.8 °F 60.8 °F 100% 30.05 in 1.0 mi Calm Calm - N/A   Mist
6:15 AM 60.8 °F 60.8 °F 100% 30.05 in 0.8 mi Calm Calm - N/A Rain Light Rain
6:35 AM 60.8 °F 60.8 °F 100% 30.05 in 0.8 mi Calm Calm - N/A   Mist
6:55 AM 60.8 °F 60.8 °F 100% 30.05 in 2.5 mi Calm Calm - N/A   Mist
7:15 AM 60.8 °F 60.8 °F 100% 30.05 in 0.2 mi Calm Calm - N/A Fog Fog
7:35 AM 60.8 °F 60.8 °F 100% 30.04 in 0.5 mi Calm Calm - 0.01 in Fog Fog
7:55 AM 60.8 °F 60.8 °F 100% 30.05 in 0.5 mi Calm Calm - 0.01 in Fog Fog
8:15 AM 60.8 °F 60.8 °F 100% 30.05 in 0.2 mi Calm Calm - N/A Fog Fog
8:35 AM 60.8 °F 60.8 °F 100% 30.05 in 1.2 mi Calm Calm - N/A   Overcast
8:55 AM 60.8 °F 60.8 °F 100% 30.05 in 3.0 mi Calm Calm - N/A   Overcast
9:15 AM 62.6 °F 62.6 °F 100% 30.06 in 2.5 mi Calm Calm - N/A   Overcast
9:35 AM 62.6 °F 62.6 °F 100% 30.05 in 5.0 mi Calm Calm - N/A   Overcast
9:55 AM 62.6 °F 62.6 °F 100% 30.05 in 4.0 mi Calm Calm - N/A   Overcast
10:15 AM 64.4 °F 64.4 °F 100% 30.05 in 8.0 mi Calm Calm - N/A   Mostly Cloudy
10:35 AM 64.4 °F 64.4 °F 100% 30.05 in 10.0 mi SW 3.5 mph - N/A   Mostly Cloudy
10:55 AM 64.4 °F 64.4 °F 100% 30.04 in 10.0 mi Calm Calm - N/A   Scattered Clouds
11:15 AM 68.0 °F 66.2 °F 94% 30.04 in 10.0 mi SSW 3.5 mph - N/A   Partly Cloudy
11:35 AM 68.0 °F 62.6 °F 83% 30.03 in 10.0 mi West 4.6 mph - N/A   Mostly Cloudy
11:55 AM 69.8 °F 62.6 °F 78% 30.02 in 10.0 mi WSW 5.8 mph - N/A   Scattered Clouds
12:15 PM 71.6 °F 62.6 °F 73% 30.02 in 10.0 mi NNW 5.8 mph - N/A   Scattered Clouds
12:35 PM 64.4 °F 62.6 °F 94% 30.02 in 1.2 mi NNW 3.5 mph - 0.11 in Rain , Thunderstorm Heavy Rain
1:15 PM 64.4 °F 64.4 °F 100% 30.02 in 5.0 mi Calm Calm - N/A Rain Light Rain
1:35 PM 66.2 °F 62.6 °F 88% 30.02 in 10.0 mi Calm Calm - N/A   Mostly Cloudy
1:55 PM 66.2 °F 62.6 °F 88% 30.01 in 10.0 mi Calm Calm - N/A   Overcast
2:15 PM 66.2 °F 62.6 °F 88% 30.00 in 9.0 mi NNW 3.5 mph - N/A   Mostly Cloudy
2:35 PM 66.2 °F 62.6 °F 88% 30.00 in 10.0 mi NNW 5.8 mph - N/A   Mostly Cloudy
2:55 PM 66.2 °F 60.8 °F 83% 29.99 in 10.0 mi North 4.6 mph - N/A   Mostly Cloudy
3:15 PM 66.2 °F 60.8 °F 83% 29.99 in 10.0 mi Calm Calm - N/A   Mostly Cloudy
3:35 PM 68.0 °F 59.0 °F 73% 29.98 in 10.0 mi Calm Calm - N/A   Mostly Cloudy
3:55 PM 68.0 °F 59.0 °F 73% 29.98 in 10.0 mi Calm Calm - N/A   Scattered Clouds
4:15 PM 68.0 °F 59.0 °F 73% 29.97 in 10.0 mi North 4.6 mph - N/A   Scattered Clouds
4:35 PM 69.8 °F 59.0 °F 68% 29.97 in 10.0 mi NNW 4.6 mph - N/A   Partly Cloudy
4:55 PM 71.6 °F 57.2 °F 60% 29.96 in 10.0 mi Calm Calm - N/A   Clear
5:15 PM 71.6 °F 57.2 °F 60% 29.96 in 10.0 mi NNW 4.6 mph - N/A   Clear
5:35 PM 69.8 °F 57.2 °F 64% 29.97 in 10.0 mi Calm Calm - N/A   Clear
5:55 PM 68.0 °F 57.2 °F 68% 29.97 in 10.0 mi NNW 5.8 mph - N/A   Mostly Cloudy
6:55 PM 66.2 °F 57.2 °F 73% 29.98 in 10.0 mi Calm Calm - N/A   Partly Cloudy
7:15 PM 64.4 °F 57.2 °F 77% 29.98 in 10.0 mi Calm Calm - N/A   Unknown
7:35 PM 62.6 °F 59.0 °F 88% 29.98 in 10.0 mi Calm Calm - N/A   Unknown
7:55 PM 59.0 °F 57.2 °F 94% 29.98 in 10.0 mi Calm Calm - N/A   Unknown
8:55 PM 57.2 °F 57.2 °F 100% 30.00 in 7.0 mi Calm Calm - N/A   Unknown
9:15 PM 57.2 °F 57.2 °F 100% 30.01 in 7.0 mi Calm Calm - N/A   Unknown
9:35 PM 55.4 °F 55.4 °F 100% 30.01 in 5.0 mi ESE 3.5 mph - N/A   Mist
9:55 PM 55.4 °F 55.4 °F 100% 30.01 in 5.0 mi Calm Calm - N/A   Mist
10:15 PM 53.6 °F 53.6 °F 100% 30.01 in 4.0 mi North 3.5 mph - N/A   Mist
10:35 PM 53.6 °F 53.6 °F 100% 30.02 in 4.0 mi NNE 3.5 mph - N/A   Mist
10:55 PM 53.6 °F 53.6 °F 100% 30.02 in 4.0 mi Calm Calm - N/A   Mist
11:35 PM 51.8 °F 51.8 °F 100% 30.02 in 3.0 mi Calm Calm - N/A   Mist
11:55 PM 51.8 °F 51.8 °F 100% 30.02 in 4.0 mi Calm Calm - N/A   Mist